Regional Weather Roundup
Issued by NWS Upton, NY

Current Version | Previous Version | Text Only | Print | Product List | Glossary On
Versions: 1 2 3 4 5 6 7 8 9 10 11 12 13 14 15 16 17 18 19 20 21 22 23 24 25 26 27
000
ASUS41 KOKX 271608
RWROKX

REGIONAL WEATHER ROUNDUP
NATIONAL WEATHER SERVICE NEW YORK NY
1200 PM EDT MON MAR 27 2017

NOTE: "FAIR" INDICATES FEW OR NO CLOUDS BELOW 12,000 FEET WITH NO
SIGNIFICANT WEATHER AND/OR OBSTRUCTIONS TO VISIBILITY.

NYZ071-072-176-178-NJZ106-104-271700-
NEW YORK CITY METRO AREA

CITY           SKY/WX    TMP DP  RH WIND       PRES   REMARKS
Central Park   CLOUDY    44  42  93 NE5       30.09F FOG
Wall St Helipt CLOUDY    45  43  93 CALM      30.08F
LaGuardia APRT CLOUDY    42  40  92 NE8       30.06F FOG
Kennedy INTL   LGT RAIN  45  44  97 N3        30.08F
Breezy Point     N/A     43 N/A N/A N2          N/A
Newark/Liberty CLOUDY    45  44  97 CALM      30.07F
Teterboro      DRIZZLE   44  41  89 E3        30.06F FOG
$$

NYZ177-179-078>081-271700-
LONG ISLAND NEW YORK

CITY           SKY/WX    TMP DP  RH WIND       PRES   REMARKS
Jones Beach      N/A     45 N/A N/A CALM        N/A
Matinecock PT    N/A     37 N/A N/A E7          N/A  WCI  32
Farmingdale    CLOUDY    48  47  96 SW6       30.06F
MacArthur/ISP  LGT RAIN  47  47 100 S5        30.06F FOG
Shirley        LGT RAIN  48  48 100 S5        30.07F FOG
Westhampton    CLOUDY    48  47  96 SW6       30.09F
East Hampton   LGT RAIN  49  48  98 S5        30.07F
Montauk        NOT AVBL
$$

NYZ052-065-067-271700-
HUDSON VALLEY

CITY           SKY/WX    TMP DP  RH WIND       PRES   REMARKS
White Plains   FOG       42  41  96 E3        30.05F VSB 1
Newburgh       LGT RAIN  39  39 100 CALM      30.08F FOG
Montgomery     CLOUDY    40  38  93 NE3       30.06S
Poughkeepsie   CLOUDY    38  37  97 CALM      30.07F FOG
Albany         CLOUDY    39  36  89 S3        30.06F
$$

NJZ001-105-106-008-010-013-015-019>022-104-271700-
NEW JERSEY

CITY           SKY/WX    TMP DP  RH WIND       PRES   REMARKS
Newark/Liberty CLOUDY    45  44  97 CALM      30.07F
Teterboro      DRIZZLE   44  41  89 E3        30.06F FOG
Caldwell       CLOUDY    43  40  89 CALM      30.07F
Somerville     CLOUDY    45  42  89 CALM      30.05F
Linden         CLOUDY    44  43  96 CALM      30.07F FOG
Sussex         CLOUDY    41  39  93 CALM      30.05F
Andover          N/A     43  40  89 CALM      30.05F
Trenton        CLOUDY    46  45  96 CALM      30.06F
Millville      CLOUDY    57  56  96 CALM      30.07S
Atlantic City  LGT RAIN  57  55  93 S5        30.07F
Wrightstown    CLOUDY    51  50  98 W3        30.04F
Toms River     CLOUDY    56  54  93 W12       30.07S
Belmar         CLOUDY    52  51  97 SW7       30.07F
$$

PAZ047>061-062-071-271700-
EASTERN PENNSYLVANIA

CITY           SKY/WX    TMP DP  RH WIND       PRES   REMARKS
Philadelphia   CLOUDY    49  47  93 SE3       30.07F FOG
Allentown      CLOUDY    44  40  85 CALM      30.06F FOG
Scranton       CLOUDY    46  43  89 W3        30.02F
$$

CTZ002-004>006-009-010-012-RIZ004-006-007-MAZ004-011-015-271700-
SOUTHERN NEW ENGLAND
 IN CT

CITY           SKY/WX    TMP DP  RH WIND       PRES   REMARKS
Bradley INTL   LGT RAIN  37  35  92 N7        30.10F FOG     WCI  32
Hartford       LGT RAIN  37  36  96 N7        30.10F FOG     WCI  32
Danbury        CLOUDY    39  39 100 E5        30.07F FOG
Wtrbury/Oxford LGT RAIN  37  34  87 CALM      30.07F VSB 1
Bridgeport     LGT RAIN  43  41  93 N7        30.07F
Meriden        LGT RAIN  39  35  86 N7        30.09F WCI  34
New Haven      LGT RAIN  40  39  97 N7        30.07F FOG
Chester        NOT AVBL
Groton         FOG       44  43  96 E6        30.08F VSB 1/4
Wilimantic     RAIN      42  41  96 N6        30.09F FOG

 IN RI

CITY           SKY/WX    TMP DP  RH WIND       PRES   REMARKS
Providence     LGT RAIN  43  42  97 SE6       30.11F VSB 3/4
Block Island   LGT RAIN  45  45 100 S13       30.08F VSB 1/4
Westerly       LGT RAIN  46  46 100 SE9       30.08F VSB 1/4
 IN MA

CITY           SKY/WX    TMP DP  RH WIND       PRES   REMARKS
Boston         RAIN      40  40 100 E6        30.11F VSB 1/2
Worcester      LGT RAIN  33  31  92 NE8       30.07F WCI  26
Westfield      LGT RAIN  36  35  96 N8        30.10F FOG     WCI  30
Provincetown   CLOUDY    45  41  86 SE16G24   30.11F
Nantucket      CLOUDY    46  42  86 SE18      30.13F
$$

ANZ330-335-338-340-345-350-353-355-271700-
COASTAL MARINE OBSERVATIONS


STATION/POSITION TIME  SKY/WX   TEMP    WIND        PRES    VSBY  WAVE
                                AIR SEA DIR/SP/G                  HT/PER
                 (UTC)          (F)     (DEG/KT/KT) (MB)    (MI)  (FT/S)
NY HARB ENTRANCE 1450            43 42  320/  6/  6 1019.1          4/ 8
20 S FIRE ISLAND 1550            45 40  240/ 10/ 12 1018.3          4/ 7
GREAT SOUTH BAY  NOT AVBL
23 SSW MONTAUK P 1450            46 43              1019.3          4/ 6
15 E BARNEGAT LI 1530               43                N/A           4/ 8
HUDSON CANYON    1450            50 45  200/ 12/ 12 1019.8          5/ 7
KINGS POINT      1548            40 39              1018.0
EXECUTION ROCKS  NOT AVBL
CENTRAL LI SOUND 1515            39      40/ 10/ 10   N/A           2/ 3
EASTERN LI SOUND NOT AVBL
ROBBINS REEF     1548            42      20/  1/  2 1018.4
$$


>>>>>>>>>>>>>>>>>>>>>>>>>>>> KEY <<<<<<<<<<<<<<<<<<<<<<<<<<<
>                                                          <
>     SKY/WX - Sky Condition/Present Weather               <
>     TMP    - Temperature in Fahrenheit                   <
>     DP     - Dew Point in Fahrenheit                     <
>     RH     - Relative Humidity in Percent                <
>     WIND   - Direction (from) and Speed in MPH           <
>     PRES   - Mean Sea Level Pressure (inches of Hg)      <
>     WCI    - Wind Chill Index                            <
>     VSB    - VISIBILITY IN MILES                         <
>     HX     - HEAT INDEX                                  <
>     TC     - TEMPERATURE IN CELSIUS                      <
>     VRB    - VARIABLE WIND DIRECTION                     <
>                                                          <
>>>>>>>>>>>>>>>>>>>>>>>>>>>> KEY <<<<<<<<<<<<<<<<<<<<<<<<<<<




USA.gov is the U.S. government's official web portal to all federal, state and local government web resources and services.